Regional Weather Roundup
Issued by NWS Sioux Falls, SD

Home | Current Version | Previous Version | Graphics & Text | Print | Product List | Glossary On
Versions: 1 2 3 4 5 6 7 8 9 10 11 12 13 14 15 16 17 18 19 20 21 22 23 24 25 26 27 28 29 30 31 32 33 34 35 36 37 38 39 40 41 42 43 44 45 46 47 48 49 50
000
ASUS43 KFSD 220702
RWRFSD

WEATHER ROUNDUP FOR SE SOUTH DAKOTA/SW MINNESOTA/NW IOWA
NATIONAL WEATHER SERVICE SIOUX FALLS SD
200 AM CDT FRI AUG 22 2014

NOTE: "FAIR" INDICATES FEW OR NO CLOUDS BELOW 12,000 FEET WITH NO
SIGNIFICANT WEATHER AND OR OBSTRUCTIONS TO VISIBILITY.


SDZ038>040-050-052>070-220800-
SOUTHEAST SOUTH DAKOTA

CITY           SKY/WX    TMP DP  RH WIND       PRES   REMARKS
CHAMBERLAIN    CLEAR     65  63  93 SE3       29.95R
HURON          CLEAR     62  61  96 CALM      29.91S
MADISON        FAIR      64  64 100 NW5       29.93S
MITCHELL       CLEAR     67  65  93 W3        29.92R
SIOUX FALLS    LGT RAIN  69  67  93 CALM      29.89F
WINNER         FAIR      68  62  81 SE9       29.94F
YANKTON        CLEAR     73  68  83 NW3       29.88F
$$

MNZ071-072-080-081-089-090-097-098-220800-
SOUTHWEST MINNESOTA

CITY           SKY/WX    TMP DP  RH WIND       PRES   REMARKS
FAIRMONT       PTCLDY    68  63  83 MISG      29.87F
JACKSON        PTCLDY    66  63  88 CALM      29.90R
LUVERNE        CLEAR     68  64  88 CALM      29.89F
MARSHALL       CLEAR     66  64  94 W5        29.88R
MONTEVIDEO     FOG       70  68  94 CALM      29.88S VSB 3/4
PIPESTONE      CLEAR     70  66  88 N3        29.91S
REDWOOD FALLS  FOG       71  71 100 CALM      29.86F VSB 1/4
TRACY          CLEAR     71  68  92 CALM      29.89S
WINDOM         PTCLDY    72  70  94 N5        29.89S
WORTHINGTON    CLEAR     68  10  10 N5        29.91S
$$

IAZ001>003-012>014-020>022-031-032-NEZ013-014-SDZ071-220800-
NORTHWEST IOWA

CITY           SKY/WX    TMP DP  RH WIND       PRES   REMARKS
CHEROKEE       MOCLDY    73  73 100 CALM      29.87R FOG
DENISON        CLOUDY    75  75 100 S5        29.86R FOG
ESTHERVILLE    CLEAR     68  67  96 N7        29.87F
LE MARS        MOCLDY    73  72  94 CALM      29.88R
ORANGE CITY    PTCLDY    75  70  83 N8        29.87F
SHELDON        CLEAR     70  70 100 N3        29.87F
SIOUX CITY     MOCLDY    77  74  90 N7        29.85F
SPENCER        PTCLDY    71  68  90 N6        29.87F
STORM LAKE     CLOUDY    73  73 100 CALM      29.89R
$$

ABBREVIATIONS USED IN REMARKS
   TC - TEMPERATURE IN CELSIUS
  WCI - WIND CHILL INDEX
   HX - HEAT INDEX
  VSB - VISIBILITY



USA.gov is the U.S. government's official web portal to all federal, state and local government web resources and services.